Terminal Aerodrome Forecast
Issued by NWS

Home | Current Version | Previous Version | Text Only | Print | Product List | Glossary On
Versions: 1 2 3 4 5 6 7 8 9 10 11 12 13 14 15 16 17 18 19 20 21 22 23 24 25 26 27 28 29 30 31 32 33 34 35 36 37 38 39 40 41 42 43 44 45 46 47 48 49 50
000
FTUS44 KBMX 032300
TAFASN
TAF
KASN 032338Z 0400/0424 06003KT P6SM VCSH OVC050
     FM040100 07002KT 6SM BR VCSH BKN025
     FM040400 12004KT 4SM BR OVC005
     FM041800 22010KT P6SM OVC015=

USA.gov is the U.S. government's official web portal to all federal, state and local government web resources and services.